Tracking 19817 objects as of 17-Aug-2019
HD Live streaming from Space Station
objects crossing your sky now

COSMOS 2251 DEB

Track COSMOS 2251 DEB now!
10-day predictions


NORAD ID: 33836
Int'l Code: 1993-036CD
Perigee: 691.6 km
Apogee: 743.1 km
Inclination: 74.0 °
Period: 99.0 minutes
Semi major axis: 7088 km
RCS: 0.034 m2 (small)
Launch date: June 16, 1993
Source: Commonwealth of Independent States (former USSR) (CIS)
Launch site: PLESETSK MISSILE AND SPACE COMPLEX (PKMTR)

Note: This is SATELLITE DEBRIS
aabbcc
Your satellite tracking list
Your tracking list is empty




NASA's NSSDC Master Catalog

Two Line Element Set (TLE):
1 33836U 93036CD  19229.07920434  .00000217  00000-0  56995-4 0  9994
2 33836  74.0077   1.1399 0036305  56.9660  60.0418 14.54733137556184
Source of the keplerian elements: AFSPC